Probability
39 29 35 16 6 0 0 0 0 0 0 0 0 0 0 0 0 0 3 13 26 29 35 68 84 84 87 81 81 87 84 84 84 81 77 81 77 81 77 77 81 77 81 81 81 81 84 84 77
26 19 16 6 0 0 0 0 0 0 0 0 0 0 0 0 0 0 6 23 32 35 48 68 84 87 84 87 84 87 84 81 84 84 84 81 84 84 84 74 81 74 77 68 74 74 74 74 71
13 13 6 0 0 0 0 0 0 0 0 0 0 0 0 0 0 3 6 29 39 42 55 77 87 84 90 90 90 87 84 81 84 84 81 81 90 87 84 84 81 77 68 71 77 77 74 65 68
13 10 3 0 0 0 0 0 0 0 0 0 0 0 0 3 3 3 13 23 23 39 52 74 87 84 87 90 90 90 90 84 84 84 77 81 84 87 87 87 84 74 68 71 77 74 74 74 65
6 6 0 0 0 0 0 0 0 0 0 0 0 0 6 10 3 6 16 16 19 39 48 61 77 84 90 90 84 87 90 94 90 87 84 81 87 84 87 84 81 81 68 71 68 65 68 65 58
6 0 0 0 0 0 0 0 0 0 0 0 0 0 10 13 3 3 13 23 26 35 45 65 77 81 87 90 90 90 84 87 90 90 87 84 87 90 84 84 84 87 65 61 55 55 58 48 55
3 0 0 0 0 0 0 0 0 0 0 0 0 0 13 13 13 10 16 19 26 42 45 55 61 81 84 84 87 90 87 84 84 84 84 94 87 87 87 87 74 68 68 61 55 55 52 55 52
3 0 0 0 0 0 0 0 0 0 0 0 0 0 0 23 13 16 19 35 32 39 42 52 71 77 65 68 84 84 87 87 81 81 84 74 81 68 65 77 71 65 55 52 48 45 42 55 55
3 0 0 0 0 0 0 0 0 0 3 6 6 3 10 23 23 23 19 29 32 35 52 52 52 65 68 55 77 81 87 84 84 77 74 68 39 29 48 45 68 71 58 52 55 48 42 45 55
0 0 0 0 0 0 0 0 0 0 0 6 13 16 23 29 26 19 23 19 29 35 48 55 55 58 58 48 81 77 74 81 77 71 55 45 65 58 32 58 65 68 58 55 55 48 35 32 26
0 0 0 0 0 0 0 0 0 0 0 3 3 13 23 23 26 35 32 35 35 35 29 45 55 61 52 74 65 71 74 81 74 68 65 74 52 48 42 35 55 55 39 45 52 39 32 23 26
0 0 0 0 0 0 0 0 0 0 3 3 3 13 19 19 29 32 35 39 42 42 39 48 61 84 71 65 65 65 52 55 55 77 61 61 65 65 55 61 39 35 48 45 29 45 32 26 23
0 0 0 0 0 0 0 3 3 3 3 6 13 19 13 13 23 26 29 42 45 48 48 58 65 81 81 77 68 55 52 42 55 71 68 61 55 52 45 65 45 32 35 32 45 42 52 39 32
0 0 0 0 0 3 3 3 3 6 6 13 23 19 19 19 26 29 32 45 48 45 52 61 71 84 90 87 87 61 55 77 58 61 65 68 68 58 55 68 61 48 48 45 52 45 52 45 42
0 0 0 0 0 3 3 3 3 6 6 16 13 19 23 26 39 45 45 45 39 45 52 65 68 77 87 84 71 61 55 55 55 61 68 74 68 74 71 61 68 55 52 58 65 42 45 52 45
0 0 0 0 3 6 3 0 6 13 10 19 10 13 23 35 39 45 48 55 52 58 68 68 55 68 84 87 87 74 68 68 68 65 74 77 77 74 81 68 65 74 65 61 71 55 52 52 48
0 0 0 0 0 0 0 0 10 10 10 16 16 10 23 32 39 45 52 52 55 71 77 77 77 77 77 84 84 77 81 81 74 77 74 74 81 77 74 74 77 81 61 55 52 65 48 45 58
0 0 0 0 0 0 0 10 13 10 10 10 16 13 19 29 35 52 52 48 61 65 77 77 84 84 84 84 84 84 84 77 74 74 84 77 71 77 77 74 74 74 68 68 65 68 71 68 68
0 0 0 0 0 0 6 6 16 13 13 13 16 16 10 23 26 55 58 58 68 74 81 81 84 84 84 84 81 77 74 74 71 77 74 77 71 71 74 55 77 77 65 61 58 61 55 52 52
0 0 0 0 0 0 6 13 16 29 26 29 23 16 23 23 39 55 65 68 65 77 81 84 87 84 84 84 81 81 84 74 77 71 81 81 77 81 61 77 65 77 81 74 81 77 68 48 48
0 0 0 0 0 3 0 10 19 32 32 32 26 29 32 32 39 65 74 71 68 74 77 71 87 87 87 84 81 81 90 81 71 77 81 71 71 71 81 77 77 81 74 65 74 77 77 61 61
0 0 0 0 0 0 0 0 19 29 35 35 42 42 42 45 39 52 77 74 71 77 77 81 87 87 87 87 84 77 77 71 71 81 74 71 71 68 61 71 68 74 68 74 68 61 71 81 68
0 0 0 0 0 0 0 0 6 19 23 26 32 45 35 42 39 48 65 77 74 74 77 74 77 87 90 87 87 77 68 68 68 68 74 77 71 65 58 68 68 77 71 68 74 81 81 77 71
0 0 0 0 0 0 0 0 3 13 16 13 32 45 42 42 42 55 65 77 84 71 65 71 77 84 84 77 74 81 81 81 74 71 77 71 68 61 52 55 61 71 68 71 77 77 68 71 71
0 0 0 0 0 0 3 0 3 6 10 10 29 35 35 39 48 58 71 77 81 77 71 74 77 81 81 81 74 77 77 74 74 71 71 71 58 52 58 45 65 65 61 58 58 61 61 61 58
0 0 0 0 0 0 3 0 6 6 13 19 29 32 35 35 58 74 77 74 81 74 74 77 81 81 77 71 74 74 74 68 68 68 65 65 55 45 55 55 58 52 52 48 55 55 52 55 52
0 0 0 0 0 0 0 0 6 10 16 16 26 32 39 45 55 61 74 74 74 77 81 81 81 81 84 71 74 71 68 68 65 65 61 58 55 42 45 48 45 42 42 42 45 52 45 42 35
0 0 0 0 0 0 0 0 0 10 13 19 32 42 48 52 52 65 68 68 77 77 81 77 81 84 77 77 71 61 61 61 61 61 61 58 52 45 45 39 32 39 35 39 35 35 45 45 42
0 0 0 0 0 0 0 0 0 6 16 19 32 42 52 52 55 61 68 77 74 71 74 81 81 74 74 68 61 61 58 55 55 52 52 55 52 42 39 35 35 32 32 29 29 29 32 35 35
0 0 0 0 0 0 0 0 0 6 16 26 32 45 48 55 61 61 71 77 84 77 77 74 68 65 71 61 61 55 58 58 52 52 52 52 48 35 35 32 29 29 29 32 26 26 26 26 32
Height
5906 5904 5904 5903 5903 5902 5900 5898 5896 5894 5893 5891 5889 5888 5887 5886 5886 5888 5885 5883 5883 5883 5883 5882 5882 5882 5882 5881 5881 5881 5881 5881 5881 5882 5882 5882 5882 5883 5883 5884 5885 5886 5886 5887 5888 5888 5889 5889 5890
5908 5907 5907 5907 5906 5905 5903 5900 5898 5896 5894 5892 5891 5890 5888 5887 5887 5886 5885 5885 5885 5884 5884 5884 5884 5884 5883 5883 5883 5883 5883 5883 5883 5883 5884 5884 5884 5885 5886 5886 5887 5888 5888 5889 5890 5890 5891 5891 5891
5911 5910 5911 5910 5908 5907 5905 5902 5900 5898 5896 5894 5893 5892 5890 5889 5888 5887 5887 5886 5886 5886 5886 5885 5885 5885 5885 5885 5885 5885 5885 5885 5885 5885 5886 5886 5886 5887 5888 5888 5889 5890 5890 5891 5891 5892 5893 5893 5893
5914 5914 5915 5914 5911 5909 5907 5904 5902 5900 5898 5896 5895 5894 5892 5890 5890 5889 5888 5888 5888 5887 5887 5887 5887 5887 5887 5887 5887 5887 5887 5887 5887 5887 5888 5888 5888 5889 5889 5890 5891 5892 5892 5893 5893 5894 5894 5894 5895
5917 5918 5918 5916 5913 5912 5909 5906 5904 5902 5901 5899 5897 5895 5893 5892 5892 5891 5890 5890 5889 5889 5889 5888 5888 5888 5888 5889 5889 5889 5889 5889 5889 5889 5890 5890 5891 5891 5892 5892 5893 5893 5894 5895 5895 5896 5896 5896 5896
5922 5922 5921 5918 5916 5914 5912 5909 5907 5905 5903 5902 5900 5898 5896 5895 5894 5893 5892 5892 5891 5891 5890 5890 5890 5890 5890 5890 5890 5891 5891 5891 5891 5891 5892 5892 5893 5893 5894 5894 5895 5895 5896 5897 5897 5897 5898 5898 5898
5926 5925 5923 5921 5919 5917 5915 5912 5910 5908 5906 5904 5903 5901 5899 5897 5897 5895 5894 5894 5893 5892 5892 5891 5891 5891 5891 5892 5892 5893 5893 5893 5893 5893 5894 5894 5895 5895 5896 5896 5897 5897 5898 5898 5899 5899 5899 5899 5900
5928 5929 5926 5924 5922 5920 5918 5915 5913 5911 5909 5907 5905 5904 5902 5901 5899 5898 5897 5896 5895 5895 5894 5893 5893 5893 5893 5893 5894 5895 5895 5895 5896 5896 5896 5896 5897 5897 5898 5898 5898 5899 5899 5900 5900 5900 5900 5901 5901
5930 5932 5929 5927 5925 5923 5921 5918 5916 5914 5912 5910 5908 5906 5905 5903 5902 5901 5900 5899 5898 5897 5896 5895 5895 5895 5895 5895 5896 5896 5897 5897 5897 5898 5898 5898 5898 5899 5899 5899 5900 5900 5901 5901 5901 5902 5902 5902 5902
5934 5934 5931 5929 5927 5925 5923 5921 5919 5917 5915 5913 5911 5909 5907 5906 5904 5903 5902 5901 5900 5899 5898 5898 5897 5897 5897 5897 5897 5898 5898 5898 5899 5899 5899 5900 5900 5900 5900 5901 5901 5901 5902 5902 5902 5902 5903 5903 5904
5936 5935 5933 5931 5929 5928 5926 5924 5922 5920 5918 5917 5915 5913 5911 5909 5907 5906 5905 5904 5903 5902 5901 5900 5899 5899 5899 5899 5899 5899 5900 5900 5900 5901 5901 5901 5901 5901 5901 5902 5902 5902 5903 5903 5903 5903 5904 5904 5905
5938 5937 5935 5933 5932 5930 5929 5927 5926 5924 5922 5920 5918 5916 5914 5912 5910 5909 5908 5906 5905 5904 5903 5902 5902 5901 5901 5901 5901 5901 5901 5902 5902 5902 5902 5902 5902 5902 5902 5903 5903 5903 5904 5904 5904 5905 5905 5905 5905
5940 5939 5937 5936 5934 5933 5932 5930 5929 5927 5925 5923 5921 5919 5917 5915 5914 5912 5911 5909 5908 5907 5906 5905 5904 5904 5903 5903 5903 5903 5903 5903 5904 5904 5904 5904 5904 5904 5904 5904 5904 5904 5905 5905 5905 5905 5905 5906 5906
5942 5941 5940 5938 5937 5936 5934 5933 5932 5930 5928 5926 5924 5922 5920 5919 5917 5915 5914 5912 5911 5909 5908 5907 5906 5906 5905 5905 5905 5904 5904 5904 5905 5905 5905 5905 5905 5904 5905 5905 5905 5905 5905 5905 5905 5906 5906 5906 5906
5943 5943 5942 5941 5940 5938 5937 5936 5934 5933 5931 5929 5927 5925 5924 5922 5920 5918 5916 5915 5913 5912 5911 5910 5909 5908 5907 5907 5906 5906 5906 5906 5906 5906 5906 5906 5906 5905 5905 5905 5905 5905 5905 5905 5905 5906 5906 5906 5906
5944 5945 5945 5944 5942 5941 5941 5940 5938 5936 5934 5932 5930 5929 5927 5925 5923 5921 5919 5918 5916 5915 5913 5912 5911 5910 5909 5909 5908 5908 5907 5907 5907 5907 5907 5906 5906 5906 5906 5906 5905 5905 5905 5905 5905 5905 5905 5905 5905
5945 5947 5947 5946 5944 5943 5942 5942 5940 5938 5937 5935 5933 5931 5930 5928 5926 5924 5922 5921 5919 5917 5916 5915 5913 5912 5911 5911 5910 5909 5909 5908 5908 5908 5908 5907 5907 5907 5906 5906 5906 5905 5905 5905 5905 5905 5905 5905 5904
5947 5947 5947 5947 5946 5945 5944 5943 5942 5940 5939 5937 5936 5934 5932 5931 5929 5927 5925 5923 5921 5920 5918 5917 5916 5915 5913 5912 5911 5911 5910 5909 5909 5908 5908 5908 5907 5907 5907 5906 5906 5905 5905 5905 5904 5904 5904 5904 5903
5946 5947 5947 5947 5947 5946 5946 5945 5944 5942 5941 5939 5938 5936 5935 5933 5931 5929 5928 5926 5924 5922 5920 5919 5918 5917 5915 5914 5913 5912 5911 5910 5910 5909 5908 5908 5907 5907 5906 5906 5906 5905 5904 5904 5904 5903 5903 5902 5902
5944 5946 5947 5947 5947 5947 5946 5946 5945 5944 5943 5941 5940 5938 5937 5935 5933 5932 5930 5928 5926 5924 5923 5921 5920 5918 5917 5915 5914 5913 5912 5911 5910 5910 5909 5908 5907 5906 5906 5905 5905 5904 5904 5903 5903 5902 5902 5901 5901
5942 5945 5946 5946 5946 5947 5947 5947 5947 5945 5944 5943 5942 5940 5939 5937 5935 5934 5932 5930 5928 5926 5925 5923 5921 5920 5918 5917 5915 5914 5913 5912 5911 5910 5909 5908 5907 5906 5905 5904 5904 5903 5902 5902 5901 5901 5901 5900 5899
5941 5943 5944 5945 5946 5947 5948 5950 5948 5946 5945 5944 5943 5941 5940 5939 5937 5935 5933 5932 5930 5928 5926 5925 5923 5921 5919 5918 5917 5915 5913 5912 5911 5910 5908 5907 5906 5905 5904 5903 5903 5902 5901 5901 5900 5900 5899 5898 5897
5938 5940 5942 5944 5945 5947 5947 5949 5950 5946 5946 5945 5944 5942 5941 5940 5938 5936 5935 5933 5931 5930 5928 5926 5924 5922 5920 5919 5917 5915 5914 5912 5911 5909 5908 5907 5905 5904 5903 5902 5902 5901 5900 5899 5899 5898 5897 5896 5895
5935 5938 5939 5941 5944 5946 5946 5947 5949 5947 5946 5945 5944 5943 5941 5940 5939 5937 5936 5934 5932 5931 5929 5927 5925 5923 5921 5919 5917 5916 5914 5912 5910 5909 5907 5906 5904 5903 5902 5901 5900 5899 5898 5897 5896 5896 5895 5894 5893
5932 5936 5939 5940 5942 5944 5944 5944 5946 5945 5945 5944 5943 5942 5941 5940 5939 5937 5936 5934 5933 5931 5929 5928 5926 5924 5922 5920 5918 5916 5914 5912 5910 5908 5907 5905 5903 5902 5900 5899 5898 5897 5896 5895 5894 5893 5892 5891 5890
5928 5932 5937 5940 5942 5943 5941 5942 5944 5943 5943 5943 5942 5941 5940 5940 5939 5937 5936 5934 5933 5931 5929 5928 5926 5924 5922 5920 5917 5915 5913 5911 5909 5908 5906 5904 5902 5900 5899 5897 5896 5895 5894 5893 5892 5891 5890 5889 5888
5924 5927 5932 5935 5937 5939 5940 5940 5940 5940 5941 5941 5940 5940 5939 5939 5938 5937 5935 5934 5932 5931 5929 5927 5925 5923 5921 5919 5917 5915 5913 5911 5909 5907 5905 5903 5901 5899 5897 5895 5894 5892 5891 5890 5889 5888 5887 5886 5884
5919 5923 5926 5929 5932 5935 5937 5937 5938 5938 5938 5939 5938 5938 5938 5937 5936 5935 5934 5933 5931 5930 5928 5926 5924 5923 5921 5919 5916 5914 5912 5910 5908 5906 5904 5901 5899 5897 5895 5893 5892 5890 5888 5887 5886 5885 5884 5882 5881
5914 5918 5921 5925 5928 5932 5935 5937 5934 5935 5935 5936 5936 5936 5936 5935 5934 5934 5933 5931 5930 5929 5927 5925 5923 5921 5919 5917 5915 5913 5911 5909 5907 5905 5903 5900 5898 5896 5893 5891 5889 5887 5885 5884 5883 5882 5880 5879 5877
5909 5912 5916 5920 5922 5925 5930 5935 5930 5931 5932 5933 5933 5933 5933 5933 5932 5931 5930 5929 5928 5927 5925 5924 5922 5920 5918 5916 5914 5911 5909 5907 5905 5903 5901 5899 5897 5894 5892 5890 5887 5885 5883 5882 5880 5879 5878 5876 5875
Wind_Speed
20 20 19 18 19 17 16 17 17 17 17 16 15 14 13 12 12 11 11 11 10 10 10 10 11 10 11 11 11 12 12 12 12 13 13 13 12 13 13 14 13 13 12 12 12 12 12 12 12
20 20 18 18 18 16 17 18 18 18 18 17 17 15 14 12 12 12 11 11 10 9 10 10 10 10 11 11 11 12 12 12 12 13 13 12 12 13 12 12 12 13 12 12 12 13 12 12 11
20 19 18 18 17 17 17 18 19 19 18 18 17 16 15 13 13 12 11 10 9 9 9 9 9 10 10 11 11 12 12 13 13 14 13 12 13 12 11 12 12 12 12 12 12 12 11 11 11
20 19 19 18 17 18 18 19 20 20 19 19 18 17 16 14 14 12 11 10 9 9 9 9 9 10 10 11 12 12 12 12 13 13 13 12 13 12 11 12 12 12 12 12 11 11 11 11 10
19 20 19 18 19 19 19 20 20 21 21 20 19 18 17 16 14 13 12 10 10 9 8 8 9 10 10 11 11 12 12 12 12 13 13 12 12 12 12 11 12 11 11 11 11 11 10 10 10
20 19 19 20 21 21 21 21 22 22 21 21 20 20 18 17 15 14 13 11 10 9 8 8 8 9 10 10 11 11 11 12 12 12 12 12 11 12 11 11 11 11 11 11 11 10 9 9 9
20 19 20 20 21 22 22 22 23 23 22 22 21 20 19 17 16 14 13 12 11 10 9 9 9 9 9 10 11 11 11 11 11 11 11 11 10 11 11 10 10 10 10 10 9 9 9 9 8
18 19 20 21 21 22 22 22 23 23 23 22 21 21 19 17 16 15 14 13 12 11 10 10 10 9 9 9 10 10 10 10 10 10 10 10 10 10 10 9 9 9 9 9 8 8 8 9 8
17 17 18 19 21 21 21 22 22 23 23 23 22 21 20 18 16 15 14 13 12 12 12 10 10 9 10 9 9 10 10 10 9 9 8 9 9 9 9 8 8 8 8 8 8 7 8 8 8
15 15 17 18 20 20 21 22 22 22 23 22 22 21 20 19 18 16 15 14 13 12 12 11 11 10 10 10 9 10 9 9 9 8 7 7 7 7 8 8 7 7 7 7 7 7 7 7 7
14 15 16 17 19 20 20 21 21 21 22 22 21 20 20 19 18 17 16 15 14 13 12 11 11 10 9 9 9 9 9 8 8 8 7 7 7 7 7 7 6 7 7 6 6 7 6 6 6
12 14 15 16 17 18 19 20 20 20 21 21 20 20 20 18 18 17 16 15 14 14 13 12 11 11 10 9 9 9 8 8 7 7 7 7 7 6 6 6 5 6 6 6 6 5 5 4 4
10 12 14 15 16 17 18 19 19 19 20 20 20 20 20 19 17 16 16 16 15 14 13 13 12 11 11 9 8 8 8 7 6 6 6 6 6 5 4 4 4 4 4 4 4 4 4 3 2
9 10 12 13 14 15 16 17 18 19 19 19 19 20 19 19 17 16 15 15 15 14 14 13 12 12 11 10 9 7 7 7 7 6 5 5 4 3 3 3 3 3 4 3 3 3 3 2 2
8 8 10 11 12 13 14 15 16 17 17 18 19 19 19 18 18 16 15 15 14 14 14 13 13 12 12 11 10 8 7 6 7 6 5 4 3 2 2 1 2 2 3 3 3 2 2 2 2
6 6 7 8 10 11 13 13 14 14 16 17 17 17 17 17 17 17 16 15 14 13 13 13 13 13 12 12 11 10 8 6 6 5 4 3 3 2 2 1 0 0 1 2 2 2 3 2 2
4 4 5 6 8 10 12 11 12 13 14 15 16 16 16 16 16 16 16 15 14 13 13 12 12 12 12 12 11 9 8 7 5 5 3 3 2 2 1 1 1 0 1 2 2 3 3 3 3
5 4 3 3 5 8 10 10 10 11 13 14 14 14 15 15 15 15 15 15 15 14 13 12 11 11 11 11 10 9 8 7 6 4 4 3 2 2 2 2 1 2 2 2 2 3 3 3 4
7 5 4 2 3 4 6 8 8 10 11 13 13 13 13 14 14 13 14 14 14 14 13 13 12 11 10 10 9 8 8 7 6 5 4 3 3 3 3 3 3 3 3 3 3 4 4 5 5
8 6 4 3 2 2 3 5 6 8 9 10 12 12 12 12 13 13 13 13 14 14 13 13 12 12 11 10 9 8 8 7 6 5 4 4 4 4 4 4 4 3 3 4 5 5 5 5 6
10 8 6 5 3 1 1 3 4 5 7 8 9 11 11 11 11 11 12 12 12 13 13 13 12 12 11 10 9 9 9 8 7 6 5 5 5 5 5 4 5 5 5 6 6 6 6 7 7
13 11 8 7 5 4 2 2 4 3 5 6 7 9 10 10 10 10 11 11 11 11 12 12 12 12 11 10 9 9 9 9 8 8 7 7 7 7 6 6 6 6 6 7 7 7 7 8 8
17 13 11 9 8 6 5 3 4 4 4 5 6 7 8 9 8 9 9 10 10 10 11 11 12 12 12 11 9 9 9 9 9 9 8 8 8 7 7 7 7 7 8 8 8 8 9 9 9
18 16 13 11 10 10 8 5 6 5 4 5 6 6 7 7 8 8 8 9 10 10 10 10 11 11 12 11 10 10 10 10 10 10 10 9 8 8 8 8 8 8 8 9 9 10 10 10 11
20 18 15 13 13 12 10 9 8 7 5 5 5 6 6 6 7 7 8 8 9 10 10 10 11 11 12 12 11 11 11 10 11 11 10 10 9 9 9 9 10 10 10 10 11 11 11 12 12
22 20 19 16 14 13 13 11 9 8 6 5 5 5 5 5 6 7 7 8 9 10 10 11 11 11 12 12 11 11 11 11 11 11 11 11 10 10 10 10 10 11 11 11 11 12 13 13 13
23 23 20 18 16 14 15 13 10 9 7 6 6 6 5 5 6 7 8 8 9 10 11 11 12 12 12 13 12 12 11 11 11 12 11 11 11 11 11 11 11 12 12 12 13 13 14 14 14
26 24 22 20 18 17 16 15 12 10 9 8 7 7 7 7 7 7 8 9 10 11 12 12 12 12 13 13 13 12 11 11 12 12 12 13 13 12 12 12 12 12 13 13 13 13 14 14 14
28 26 25 23 21 18 16 16 15 13 11 10 10 9 9 8 8 9 9 10 11 11 12 13 13 13 13 13 14 13 12 12 11 12 13 13 13 13 12 12 12 12 13 13 12 12 12 13 13
30 28 26 25 24 21 18 17 17 15 13 12 11 10 10 9 10 10 10 11 11 12 12 13 13 13 13 13 14 14 13 12 13 12 13 13 13 13 13 12 12 12 12 12 12 12 12 12 12
Wind_Direction
63 64 64 66 68 70 72 71 70 71 71 71 72 73 75 79 83 87 90 94 97 98 100 102 104 105 105 106 107 108 110 112 113 111 109 107 109 109 108 109 105 107 106 108 110 113 111 108 106
66 65 65 66 69 70 71 70 71 71 69 70 70 69 71 75 79 82 86 92 96 99 102 104 104 103 104 106 107 106 107 112 114 111 108 107 112 109 108 110 107 108 108 108 108 106 106 107 108
66 65 66 67 70 70 70 70 71 71 69 68 67 67 69 72 75 80 85 90 94 98 101 103 105 104 106 107 108 108 106 107 111 109 106 105 110 111 109 112 109 108 109 111 108 106 106 109 108
64 64 64 65 67 69 69 70 71 70 68 66 66 65 67 71 75 77 81 85 88 94 99 103 109 108 110 109 110 108 107 106 110 111 110 107 107 110 113 113 109 110 109 109 107 106 108 109 109
64 65 64 63 65 67 67 68 68 68 66 65 64 65 68 70 71 74 77 81 85 90 96 101 110 114 116 114 112 111 109 108 109 112 113 112 111 112 113 112 113 112 111 111 110 108 109 109 108
66 67 66 65 65 66 66 67 67 67 65 63 62 63 66 68 69 71 73 77 81 86 92 102 109 113 116 114 113 112 111 109 111 114 113 111 111 112 112 110 112 113 114 114 113 112 108 106 107
70 70 70 67 65 65 66 66 66 65 63 61 60 61 64 68 67 69 73 76 78 82 88 96 102 108 111 113 113 113 113 112 111 112 114 114 112 112 113 112 114 115 117 118 118 115 110 109 110
71 70 70 68 65 65 66 66 65 64 63 61 60 59 61 65 66 68 70 73 78 81 85 93 98 103 108 112 114 114 112 114 114 113 114 116 116 116 116 115 117 118 118 118 117 116 115 114 111
69 71 70 69 66 65 64 65 63 63 62 60 60 59 60 61 65 67 69 72 76 80 82 88 94 100 105 111 113 115 113 112 112 112 111 116 116 113 115 117 120 123 121 118 116 117 118 118 115
72 74 71 70 68 65 63 63 62 61 60 58 58 59 59 60 63 66 68 71 74 77 80 85 88 94 100 108 111 113 112 111 111 109 109 111 115 113 114 116 122 125 125 121 114 122 123 121 123
75 76 72 70 68 65 62 61 61 60 59 57 56 56 58 61 62 65 66 69 71 74 76 84 85 88 94 100 105 108 111 110 111 109 110 111 114 114 112 114 125 130 132 128 123 130 129 126 128
76 76 75 72 70 66 63 61 60 61 59 57 55 54 55 60 63 64 65 67 71 74 76 81 83 83 87 93 97 100 103 107 110 109 106 110 115 114 112 111 121 131 137 135 133 134 140 141 137
79 79 78 73 69 67 64 61 59 60 58 57 55 54 54 55 59 63 63 63 66 70 74 77 78 80 81 86 91 94 97 103 108 110 108 109 114 118 122 118 125 133 136 143 148 144 150 162 169
85 84 81 74 71 68 64 60 58 57 55 55 53 53 54 54 56 59 60 61 64 67 70 72 75 76 76 79 85 88 92 97 102 101 98 98 100 107 126 125 121 138 142 146 157 160 158 176 193
93 87 80 74 70 67 65 60 56 53 52 52 51 52 55 54 54 56 58 60 62 66 67 70 73 74 74 75 77 82 86 92 97 96 95 91 82 79 96 111 136 154 156 166 184 190 200 213 227
102 91 79 75 72 69 67 61 57 53 51 50 50 50 52 52 53 55 56 57 59 61 64 66 68 71 72 70 70 74 76 77 82 85 88 81 69 65 68 88 95 182 205 203 205 219 229 242 247
123 116 99 78 74 72 69 64 57 53 51 49 47 47 48 48 50 53 54 55 56 59 62 63 64 66 66 65 66 67 68 68 71 75 76 70 59 50 37 37 7 348 274 245 247 248 243 257 273
170 158 132 94 81 74 69 63 57 53 48 46 45 44 43 44 47 48 49 49 51 55 58 60 58 58 56 56 59 60 59 58 57 63 58 43 28 19 4 343 334 324 305 294 288 271 267 272 278
179 168 166 149 101 81 66 58 53 50 46 44 41 38 37 39 40 42 44 45 47 50 53 53 51 48 45 44 47 50 48 45 45 45 41 27 8 356 342 334 325 318 307 309 306 294 290 283 284
195 183 181 190 160 111 71 52 46 46 45 40 36 34 32 33 36 39 41 43 45 47 48 46 43 41 39 36 36 37 32 30 28 27 18 1 348 336 325 313 309 307 304 308 305 295 287 287 287
211 204 201 210 208 188 49 17 16 33 36 34 31 28 27 28 31 32 32 34 38 42 41 39 37 31 27 26 26 25 23 21 16 10 1 342 334 327 322 311 301 302 299 302 301 297 289 289 291
220 219 218 219 218 234 219 286 323 358 20 22 20 18 20 21 22 23 23 27 30 33 34 34 30 24 19 16 16 17 12 9 5 354 347 341 328 319 313 311 299 298 298 299 297 298 291 291 293
223 226 229 229 226 232 244 241 282 307 341 359 4 3 6 11 13 15 18 20 20 23 25 27 25 20 15 12 11 9 6 2 358 352 344 336 331 324 318 310 304 303 300 299 300 295 296 295 294
224 227 233 236 234 236 240 235 256 278 305 330 344 350 351 358 8 10 11 13 15 15 16 17 16 13 10 7 4 0 358 353 353 351 348 340 334 329 322 312 307 308 306 302 297 294 294 294 296
222 225 231 236 237 240 244 242 246 262 281 305 323 337 341 345 356 2 5 7 8 8 9 8 8 7 5 3 360 353 351 349 348 345 344 339 332 326 320 314 308 308 310 307 301 298 295 294 293
223 225 225 228 239 245 249 247 252 263 276 292 304 315 324 329 339 346 353 358 0 360 0 0 359 359 359 356 354 351 347 345 345 344 342 341 333 328 322 316 309 307 306 305 302 298 295 293 292
225 226 228 232 236 237 246 253 252 261 274 284 291 292 299 310 321 329 338 347 351 352 352 351 351 350 350 350 350 348 346 344 342 342 344 342 336 329 324 320 314 309 306 303 299 297 296 294 293
227 229 230 230 233 240 248 255 253 259 270 277 283 284 286 292 303 315 322 331 337 341 343 343 343 343 342 344 345 345 343 341 338 338 340 339 337 331 325 320 316 311 307 303 301 300 299 298 297
228 230 231 233 234 237 246 254 256 255 262 268 274 279 280 284 291 301 310 317 326 332 335 337 338 337 337 339 340 341 338 336 335 334 337 337 337 335 332 328 324 317 309 304 301 302 304 302 300
230 232 233 236 239 237 239 252 256 256 261 264 268 272 274 277 283 293 301 307 314 322 325 327 330 330 330 332 335 335 332 328 327 329 333 337 339 338 338 335 331 330 325 315 309 310 308 307 305